GW3759 Weather Reports


Display with metric or nautical units.
time (UTC)temp
F
wind
direction
speed
MPH
gust
MPH
rain 1hr
in
rain 24hr
in
rain mn
in
humidity
%
barometer
mb
20260904170016 86 351 1.0 5.0 0.00 0.21 0.21 70 1014.6
20260904164512 86 135 1.0 4.0 0.00 0.21 0.21 70 1014.7
20260904163011 85 319 2.0 6.0 0.00 0.21 0.21 70 1014.8
20260904161515 85 187 1.0 8.0 0.00 0.21 0.21 70 1014.9
20260904160016 85 286 1.0 4.0 0.00 0.21 0.21 72 1014.9
20260904154535 85 284 0.0 3.0 0.00 0.21 0.21 70 1014.9
20260904153003 84 29 1.0 3.0 0.00 0.21 0.21 73 1015.0
20260904151502 84 293 1.0 6.0 0.00 0.21 0.21 77 1015.1
20260904150015 83 333 2.0 5.0 0.00 0.21 0.21 80 1015.0
20260904144502 81 20 2.0 6.0 0.00 0.21 0.21 85 1015.0
20260904143003 80 341 2.0 5.0 0.00 0.21 0.21 86 1015.2
20260904141504 79 336 0.0 4.0 0.00 0.21 0.21 89 1015.1
20260904140006 78 24 0.0 4.0 0.00 0.21 0.21 89 1015.0
20260904134503 78 348 2.0 5.0 0.00 0.21 0.21 91 1015.1
20260904133004 78 345 2.0 8.0 0.00 0.21 0.21 91 1015.2
20260904131506 77 5 3.0 6.0 0.00 0.21 0.21 95 1015.0
20260904130008 76 165 0.0 0.0 0.00 0.21 0.21 96 1014.7
20260904124508 75 165 0.0 3.0 0.00 0.21 0.21 96 1014.7
20260904123006 74 142 1.0 3.0 0.00 0.21 0.21 96 1014.7
20260904121504 73 30 0.0 0.0 0.00 0.21 0.21 97 1014.7
20260904120005 73 30 0.0 0.0 0.00 0.21 0.21 97 1014.6
20260904114512 72 30 0.0 0.0 0.00 0.21 0.21 97 1014.4
20260904113012 71 30 0.0 0.0 0.00 0.21 0.21 96 1014.5
20260904111515 71 30 0.0 0.0 0.00 0.21 0.21 96 1014.4
20260904110012 71 30 0.0 0.0 0.00 0.21 0.21 96 1014.2
20260904104503 71 136 0.0 0.0 0.00 0.21 0.21 95 1014.2
20260904103017 71 136 0.0 0.0 0.00 0.21 0.21 95 1014.1
20260904101535 71 136 0.0 0.0 0.00 0.21 0.21 95 1014.0
20260904100019 71 330 0.0 0.0 0.00 0.21 0.21 96 1014.0
20260904094506 71 335 0.0 0.0 0.00 0.21 0.21 95 1013.9
20260904093012 71 333 0.0 0.0 0.00 0.21 0.21 96 1014.0
20260904091508 71 169 0.0 0.0 0.00 0.21 0.21 96 1013.9
20260904090028 71 169 0.0 0.0 0.00 0.21 0.21 95 1014.1
20260904084530 71 133 0.0 0.0 0.00 0.21 0.21 95 1014.0
20260904083013 72 350 0.0 0.0 0.00 0.21 0.21 96 1014.0
20260904081518 71 350 0.0 0.0 0.00 0.21 0.21 96 1014.0
20260904080014 71 350 0.0 0.0 0.00 0.21 0.21 95 1014.1
20260904074511 72 350 0.0 0.0 0.00 0.21 0.21 95 1013.9
20260904073009 72 350 0.0 0.0 0.00 0.21 0.21 95 1013.5
20260904071513 72 350 0.0 0.0 0.00 0.21 0.21 95 1013.6
20260904070038 72 350 0.0 0.0 0.00 0.21 0.21 95 1013.5
20260904064523 72 350 0.0 0.0 0.00 0.21 0.21 95 1013.6
20260904063003 72 350 0.0 1.0 0.00 0.21 0.21 94 1013.6
20260904061507 72 350 2.0 4.0 0.01 0.21 0.21 94 1013.6
20260904060003 72 227 0.0 2.0 0.10 0.21 0.21 94 1013.6
20260904054504 72 360 0.0 3.0 0.21 0.21 0.21 93 1013.9
20260904053008 73 82 0.0 1.0 0.21 0.21 0.21 92 1015.0
20260904051503 74 125 0.0 2.0 0.20 0.20 0.20 90 1015.3
20260904050011 77 340 6.0 11.0 0.11 0.11 0.11 81 1016.7
20260904044505 79 53 4.0 32.0 0.00 0.00 0.00 77 1016.7
20260904043003 81 338 3.0 13.0 0.00 0.00 0.00 86 1016.1
20260904041506 82 150 3.0 6.0 0.00 0.00 0.00 88 1015.0
20260904040003 81 47 0.0 3.0 0.00 0.00 0.00 90 1014.9
20260904034504 81 134 1.0 5.0 0.00 0.00 0.00 91 1014.8
20260904033003 80 156 0.0 0.0 0.00 0.00 0.00 93 1014.8
20260904031504 81 156 0.0 0.0 0.00 0.00 0.00 93 1014.3
20260904030003 81 149 0.0 0.0 0.00 0.00 0.00 93 1014.1
20260904024502 81 277 0.0 0.0 0.00 0.00 0.00 95 1014.3
20260904023003 81 277 0.0 0.0 0.00 0.00 0.00 95 1014.3
20260904021506 80 277 0.0 0.0 0.00 0.00 0.00 94 1014.5
20260904020004 80 277 0.0 0.0 0.00 0.00 0.00 94 1014.6
20260904014503 80 277 0.0 0.0 0.00 0.00 0.00 94 1014.4
20260904013003 81 277 0.0 0.0 0.00 0.00 0.00 94 1014.3
20260904011503 81 277 0.0 0.0 0.00 0.00 0.00 93 1014.6
20260904010008 81 277 0.0 0.0 0.00 0.00 0.00 92 1014.8
20260904004513 81 277 0.0 0.0 0.00 0.00 0.00 92 1015.0
20260904003010 82 277 0.0 0.0 0.00 0.00 0.00 91 1015.0
20260904001502 82 277 0.0 0.0 0.00 0.00 0.00 91 1015.1
20260904000003 83 277 0.0 0.0 0.00 0.00 0.00 90 1015.0
20260903234505 83 277 0.0 2.0 0.00 0.00 0.00 89 1014.5
20260903233013 84 277 0.0 2.0 0.00 0.00 0.00 88 1014.5
20260903231516 85 277 0.0 1.0 0.00 0.00 0.00 85 1014.4
20260903230009 86 277 0.0 1.0 0.00 0.00 0.00 83 1014.4
20260903224505 87 277 0.0 0.0 0.00 0.00 0.00 82 1014.2
20260903223008 87 277 0.0 2.0 0.00 0.00 0.00 80 1014.1
20260903221503 88 132 1.0 5.0 0.00 0.00 0.00 77 1014.1
20260903220022 88 142 3.0 7.0 0.00 0.00 0.00 76 1014.2
20260903214503 88 163 2.0 5.0 0.00 0.00 0.00 75 1014.2
20260903213003 88 165 2.0 4.0 0.00 0.00 0.00 74 1014.4
20260903211503 88 153 0.0 2.0 0.00 0.00 0.00 76 1014.5
20260903210004 87 161 2.0 5.0 0.00 0.02 0.00 76 1014.7
20260903204503 86 173 2.0 5.0 0.00 0.02 0.00 78 1014.9
20260903203007 86 128 0.0 2.0 0.00 0.02 0.00 78 1015.0
20260903201506 85 350 0.0 1.0 0.00 0.02 0.00 79 1015.3
20260903200006 85 350 0.0 0.0 0.00 0.02 0.00 80 1015.4
20260903194503 85 350 0.0 0.0 0.00 0.02 0.00 79 1015.6
20260903193004 85 350 0.0 0.0 0.00 0.02 0.00 77 1015.9
20260903191506 85 37 0.0 1.0 0.00 0.02 0.00 77 1016.2
20260903190004 85 37 0.0 2.0 0.00 0.02 0.00 77 1016.0
20260903184504 85 37 0.0 1.0 0.00 0.02 0.00 77 1016.3
20260903183004 85 37 0.0 1.0 0.00 0.02 0.00 76 1016.6
20260903181510 85 37 0.0 1.0 0.00 0.02 0.00 78 1016.8
20260903180008 84 55 0.0 3.0 0.00 0.02 0.00 78 1017.0
20260903174509 84 152 0.0 4.0 0.00 0.02 0.00 79 1017.1
20260903173006 84 336 0.0 11.0 0.00 0.02 0.00 77 1017.2
20260903171504 83 49 3.0 10.0 0.00 0.02 0.00 79 1017.6